Waarnemingen

Advertentie
Mijn weer
Malmo/Sturup, Zweden (2636): temperatuur & dauwpunt: 12.02.2018 05:00:00 - 18.02.2018 05:00:00 (CET)Malmo/Sturup, Zweden (2636): windsnelheid: 12.02.2018 05:00:00 - 18.02.2018 05:00:00 (CET)Malmo/Sturup, Zweden (2636): windrichting: 12.02.2018 05:00:00 - 18.02.2018 05:00:00 (CET)Malmo/Sturup, Zweden (2636): luchtdruk: 12.02.2018 05:00:00 - 18.02.2018 05:00:00 (CET)Malmo/Sturup, Zweden (2636): zicht: 12.02.2018 05:00:00 - 18.02.2018 05:00:00 (CET)
Datum & Tijd tt [°C] td [°C] ff [km/u] ff [kn] dd ppp [hPa] vv [km]
18.02.2018 05:00:00 -0,6 -2,3 4 2 O 1027,3 8
18.02.2018 04:00:00 -0,8 -1,6 5 3 ZW 1027,2 10
18.02.2018 03:00:00 -1,0 -1,6 5 3 ZZW 1027,0 10
18.02.2018 02:00:00 -1,4 -2,0 0 0 N 1027,1 10
18.02.2018 01:00:00 -1,5 -2,1 0 0 N 1027,0 10
18.02.2018 00:00:00 -1,9 -2,3 4 2 NW 1026,7 10
17.02.2018 23:00:00 -2,8 -2,9 2 1 NNO 1026,5 9
17.02.2018 22:00:00 -3,3 -3,8 2 1 N 1025,9 10
17.02.2018 21:00:00 -2,6 -3,1 4 2 NW 1025,7 10
17.02.2018 20:00:00 -1,9 -2,7 2 1 N 1025,6 10
17.02.2018 19:00:00 -0,7 -2,4 8 4 NW 1025,4 10
17.02.2018 18:00:00 0,3 -2,2 8 4 NNW 1024,9 10
17.02.2018 17:00:00 1,8 -2,2 13 7 N 1024,5 10
17.02.2018 16:00:00 2,2 -2,1 16 9 NNW 1024,1 10
17.02.2018 15:00:00 2,4 -0,9 16 9 NNW 1024,0 10
17.02.2018 14:00:00 2,5 -1,1 15 8 NW 1023,8 10
17.02.2018 13:00:00 2,7 -1,3 18 10 NNW 1023,8 10
17.02.2018 12:00:00 2,2 -1,6 16 9 NNW 1024,0 10
17.02.2018 11:00:00 1,8 -1,3 15 8 NNW 1023,8 10
17.02.2018 10:00:00 1,5 -1,4 11 6 NNW 1023,7 10
17.02.2018 09:00:00 1,0 -1,7 16 9 NNW 1023,5 10
17.02.2018 08:00:00 1,0 -1,7 16 9 NW 1023,2 10
17.02.2018 07:00:00 0,9 -1,8 16 9 NW 1022,9 10
17.02.2018 06:00:00 0,9 -1,3 16 9 NW 1022,9 10
17.02.2018 05:00:00 1,1 -1,1 16 9 NW 1022,9 10
17.02.2018 04:00:00 1,0 -0,8 16 9 NW 1022,9 10
17.02.2018 03:00:00 1,2 -1,0 18 10 NW 1022,6 9
17.02.2018 02:00:00 1,1 -0,8 22 12 NW 1022,1 10
17.02.2018 01:00:00 1,1 -1,0 24 13 NW 1021,6 9
17.02.2018 00:00:00 1,3 -0,5 24 13 NW 1021,3 8
16.02.2018 23:00:00 1,7 0,8 18 10 NW 1020,6 7
16.02.2018 22:00:00 1,9 1,6 21 11 NW 1019,9 4,0
16.02.2018 21:00:00 2,1 1,5 22 12 WNW 1019,3 6
16.02.2018 20:00:00 2,7 2,1 26 14 WNW 1018,6 4,1
16.02.2018 19:00:00 2,9 2,0 28 15 WNW 1017,9 4,8
16.02.2018 18:00:00 3,5 2,6 31 17 W 1016,8 3,5
16.02.2018 17:00:00 3,7 2,5 29 16 WZW 1016,0 8
16.02.2018 16:00:00 3,8 2,3 28 15 WZW 1015,9 9
16.02.2018 15:00:00 3,7 1,9 28 15 WZW 1016,2 10
16.02.2018 14:00:00 3,9 1,9 26 14 WZW 1016,4 10
16.02.2018 13:00:00 4,3 2,0 26 14 WZW 1016,3 10
16.02.2018 12:00:00 3,7 1,9 24 13 WZW 1016,5 10
16.02.2018 11:00:00 3,0 1,5 21 11 WZW 1016,1 10
16.02.2018 10:00:00 2,1 1,2 18 10 WZW 1015,5 10
16.02.2018 09:00:00 1,4 0,5 15 8 WZW 1015,0 6
16.02.2018 08:00:00 1,1 0,5 13 7 WZW 1014,4 4,5
16.02.2018 07:00:00 1,2 0,9 11 6 WZW 1013,9 2,6
16.02.2018 06:00:00 0,8 0,5 13 7 WZW 1013,6 4,0
16.02.2018 05:00:00 0,9 0,8 11 6 WZW 1013,2 1,5
16.02.2018 04:00:00 0,5 0,4 9 5 ZW 1012,8 2,0
16.02.2018 03:00:00 0,2 0,1 13 7 Z 1012,5 2,5
16.02.2018 02:00:00 -0,1 -0,2 15 8 Z 1012,7 3,0
16.02.2018 01:00:00 -0,3 -0,4 18 10 Z 1012,9 2,5
16.02.2018 00:00:00 -0,4 -1,0 22 12 Z 1013,3 2,0
15.02.2018 23:00:00 0,4 -1,7 26 14 Z 1013,5 7
15.02.2018 22:00:00 0,3 -2,4 34 18 ZZO 1013,7 8
15.02.2018 21:00:00 0,3 -1,9 31 17 ZZO 1014,3 10
15.02.2018 20:00:00 0,3 -2,4 31 17 ZZO 1014,6 10
15.02.2018 19:00:00 0,7 -2,2 29 16 ZZO 1015,6 10
15.02.2018 18:00:00 0,5 -2,7 29 16 ZO 1015,6 10
15.02.2018 17:00:00 0,3 -1,9 28 15 ZO 1015,6 10
15.02.2018 16:00:00 0,2 -1,7 24 13 ZO 1016,5 10
15.02.2018 15:00:00 0,1 -1,8 26 14 ZO 1017,4 10
15.02.2018 14:00:00 0,1 -1,8 26 14 ZO 1018,1 10
15.02.2018 13:00:00 -0,1 -1,8 26 14 ZO 1019,2 10
15.02.2018 12:00:00 0,0 -1,9 28 15 ZO 1019,9 9
15.02.2018 11:00:00 -0,6 -2,3 26 14 ZO 1020,3 10
15.02.2018 10:00:00 -0,6 -2,3 22 12 ZO 1020,9 10
15.02.2018 09:00:00 -1,1 -2,2 26 14 ZO 1021,0 9
15.02.2018 08:00:00 -1,2 -2,3 26 14 ZO 1021,1 9
15.02.2018 07:00:00 -1,5 -2,9 22 12 ZO 1021,3 10
15.02.2018 06:00:00 -1,4 -2,8 22 12 ZO 1021,6 10
15.02.2018 05:00:00 -1,2 -2,6 18 10 ZO 1022,0 10
15.02.2018 04:00:00 -0,9 -2,6 21 11 ZO 1022,2 10
15.02.2018 03:00:00 -0,4 -2,5 16 9 ZO 1022,5 10
15.02.2018 02:00:00 -0,1 -2,3 21 11 ZO 1023,0 10
15.02.2018 01:00:00 0,0 -2,1 18 10 ZO 1022,9 10
15.02.2018 00:00:00 -0,2 -1,9 22 12 ZZO 1023,1 10
14.02.2018 23:00:00 -0,3 -2,4 21 11 ZO 1023,3 10
14.02.2018 22:00:00 -0,1 -1,5 16 9 ZO 1023,9 10
14.02.2018 21:00:00 0,2 -1,2 16 9 ZO 1024,1 10
14.02.2018 20:00:00 0,3 -1,1 15 8 ZO 1024,0 10
14.02.2018 19:00:00 -0,2 -1,3 15 8 ZO 1024,0 9
14.02.2018 18:00:00 -0,4 -1,2 13 7 ZO 1023,9 8
14.02.2018 17:00:00 -0,3 -1,1 15 8 ZO 1023,7 8
14.02.2018 16:00:00 -0,2 -1,0 13 7 ZZO 1023,4 6
14.02.2018 15:00:00 1,2 -0,4 13 7 ZO 1022,8 7
14.02.2018 14:00:00 1,9 0,1 18 10 ZO 1022,3 7
14.02.2018 13:00:00 2,9 -0,4 15 8 ZO 1022,1 10
14.02.2018 12:00:00 3,7 0,7 15 8 ZO 1022,0 9
14.02.2018 11:00:00 2,7 1,2 11 6 ZO 1021,8 6
14.02.2018 10:00:00 1,5 1,2 8 4 O 1021,4 3,5
14.02.2018 09:00:00 -1,1 -1,2 4 2 OZO 1020,8 2,5
14.02.2018 08:00:00 -3,0 -3,1 5 3 OZO 1020,3 4,0
14.02.2018 07:00:00 -4,3 -4,7 4 2 O 1019,8 2,5
14.02.2018 06:00:00 -4,0 -4,4 8 4 O 1019,1 3,5
14.02.2018 05:00:00 -3,6 -4,0 5 3 O 1018,9 1,9
14.02.2018 04:00:00 -4,0 -4,4 4 2 O 1018,5 0,3
14.02.2018 03:00:00 -3,5 -3,6 4 2 - 1018,2 1,5
14.02.2018 02:00:00 -3,5 -3,6 5 3 O 1017,9 1,6
14.02.2018 01:00:00 -2,9 -3,0 4 2 OZO 1017,5 1,1
14.02.2018 00:00:00 -2,9 -3,0 4 2 OZO 1017,0 1,5
13.02.2018 23:00:00 -1,4 -1,8 5 3 ZO 1016,6 2,4
13.02.2018 22:00:00 -0,4 -1,1 8 4 ZO 1016,5 3,3
13.02.2018 21:00:00 -0,4 -1,0 8 4 OZO 1016,1 3,7
13.02.2018 20:00:00 0,4 -0,7 9 5 ZZW 1015,7 6
13.02.2018 19:00:00 1,0 -0,2 9 5 Z 1015,5 6
13.02.2018 18:00:00 0,9 -0,1 9 5 ZZW 1015,0 5
13.02.2018 17:00:00 1,2 0,0 13 7 ZZW 1014,5 3,9
13.02.2018 16:00:00 1,3 0,1 13 7 ZZW 1014,0 5
13.02.2018 15:00:00 1,6 0,7 18 10 ZZW 1013,6 5
13.02.2018 14:00:00 1,7 0,8 16 9 ZZW 1013,6 6
13.02.2018 13:00:00 1,7 0,8 11 6 Z 1013,6 6
13.02.2018 12:00:00 0,9 -0,4 15 8 ZZW 1013,7 10
13.02.2018 11:00:00 1,5 0,0 18 10 ZZW 1013,6 -
13.02.2018 10:00:00 1,3 0,1 13 7 ZW 1013,3 10
13.02.2018 09:00:00 1,2 0,0 13 7 ZW 1012,9 10
13.02.2018 08:00:00 0,0 0,0 16 9 ZW - 10
13.02.2018 07:00:00 0,0 -1,0 18 10 ZW - 10
13.02.2018 06:00:00 0,0 -1,0 16 9 WZW - 10
13.02.2018 05:00:00 0,0 -1,0 18 10 WZW - 10
13.02.2018 04:00:00 0,1 -0,6 15 8 WZW 1011,0 10
13.02.2018 03:00:00 0,5 -0,4 16 9 WZW 1010,6 10
13.02.2018 02:00:00 0,3 -0,6 21 11 WZW 1010,2 10
13.02.2018 01:00:00 0,4 -0,7 18 10 WZW 1009,6 10
13.02.2018 00:00:00 0,4 -0,7 18 10 WZW 1009,1 10
12.02.2018 23:00:00 0,6 -0,5 22 12 WZW 1008,6 10
12.02.2018 22:00:00 0,9 -0,7 22 12 WZW 1008,0 10
12.02.2018 21:00:00 0,7 -1,1 22 12 WZW 1007,3 10
12.02.2018 20:00:00 1,1 -0,5 26 14 WZW 1006,6 10
12.02.2018 19:00:00 1,4 -0,5 24 13 WZW 1005,9 10
12.02.2018 18:00:00 1,8 -0,5 26 14 WZW 1005,0 10
12.02.2018 17:00:00 2,2 -0,2 31 17 WZW 1003,7 9
12.02.2018 16:00:00 2,7 0,1 31 17 WZW 1002,5 10
12.02.2018 15:00:00 3,1 0,0 31 17 WZW 1001,5 10
12.02.2018 14:00:00 2,6 0,7 34 18 ZW 1000,7 10
12.02.2018 13:00:00 2,8 0,4 35 19 ZW 1000,2 10
12.02.2018 12:00:00 2,5 0,7 34 18 ZW 999,9 10
12.02.2018 11:00:00 2,4 0,5 35 19 ZW 999,4 10
12.02.2018 10:00:00 2,2 -0,2 39 21 ZW 998,7 8
12.02.2018 09:00:00 2,4 0,1 41 22 ZW 998,1 10
12.02.2018 08:00:00 2,1 0,0 35 19 ZW 997,6 10
12.02.2018 07:00:00 1,7 -0,2 37 20 ZW 997,1 10
12.02.2018 06:00:00 2,0 -0,3 39 21 ZZW 996,9 10
12.02.2018 05:00:00 2,2 0,1 39 21 ZZW 996,8 10

tt = temperatuur
td = dauwpunt
ff = windsnelheid
dd = windrichting
ppp = luchtdruk
vv = zicht

Weerstations in de omgeving